• In Hungary
  • List of Countries
  • For 7 days
  • Water Temperature
  • Satellite Maps
  • Weather Map
  • News
  • Weather Widgets
  • user-avatar
    Login

    Hourly Weather Bogoslovka

    Today, 20 August, Monday

    Time Temperature Precipitation Wind Pressure Humidity
    00:00 +18°C° 0 mm 2 mps 745 mmHg 66%
    01:00 +17°C° 0 mm 2 mps 745 mmHg 67%
    02:00 +17°C° 0 mm 2 mps 745 mmHg 68%
    03:00 +17°C° 0 mm 2 mps 745 mmHg 70%
    04:00 +16°C° 0 mm 2 mps 745 mmHg 71%
    05:00 +16°C° 0 mm 2 mps 744 mmHg 73%
    06:00 +16°C° 0 mm 2 mps 744 mmHg 74%
    07:00 +18°C° 0 mm 3 mps 744 mmHg 70%
    08:00 +19°C° 0 mm 3 mps 744 mmHg 66%
    09:00 +21°C° 0 mm 3 mps 745 mmHg 62%
    10:00 +22°C° 0 mm 3 mps 744 mmHg 58%
    11:00 +25°C° 0 mm 4 mps 744 mmHg 54%
    12:00 +26°C° 0 mm 4 mps 744 mmHg 50%
    13:00 +26°C° 0 mm 4 mps 744 mmHg 49%
    14:00 +27°C° 0 mm 4 mps 743 mmHg 49%
    15:00 +27°C° 0 mm 4 mps 743 mmHg 48%
    16:00 +27°C° 0 mm 3 mps 743 mmHg 52%
    17:00 +26°C° 0 mm 3 mps 742 mmHg 56%
    18:00 +26°C° 0 mm 3 mps 742 mmHg 60%
    19:00 +25°C° 0 mm 3 mps 742 mmHg 63%
    20:00 +22°C° 0 mm 3 mps 742 mmHg 67%
    21:00 +20°C° 0 mm 3 mps 742 mmHg 71%
    22:00 +20°C° 0 mm 3 mps 742 mmHg 72%
    23:00 +19°C° 0 mm 3 mps 741 mmHg 73%

    Tomorrow, 21 August, Tuesday

    Time Temperature Precipitation Wind Pressure Humidity
    00:00 +19°C° 0 mm 3 mps 741 mmHg 75%
    01:00 +19°C° 0 mm 3 mps 741 mmHg 75%
    02:00 +18°C° 0 mm 3 mps 741 mmHg 75%
    03:00 +18°C° 0 mm 3 mps 741 mmHg 75%
    04:00 +18°C° 0 mm 4 mps 740 mmHg 76%
    05:00 +18°C° 0 mm 4 mps 740 mmHg 77%
    06:00 +17°C° 0 mm 4 mps 740 mmHg 77%
    07:00 +19°C° 0 mm 4 mps 740 mmHg 74%
    08:00 +21°C° 0 mm 5 mps 740 mmHg 71%
    09:00 +22°C° 0 mm 6 mps 740 mmHg 68%
    10:00 +23°C° 0 mm 6 mps 739 mmHg 63%
    11:00 +26°C° 0 mm 7 mps 739 mmHg 58%
    12:00 +27°C° 0 mm 8 mps 739 mmHg 53%
    13:00 +27°C° 0.2 mm 8 mps 738 mmHg 53%
    14:00 +27°C° 0.2 mm 8 mps 738 mmHg 53%
    15:00 +27°C° 0.2 mm 8 mps 737 mmHg 53%
    16:00 +26°C° 1 mm 8 mps 737 mmHg 60%
    17:00 +24°C° 1 mm 7 mps 737 mmHg 66%
    18:00 +23°C° 1 mm 6 mps 737 mmHg 73%
    19:00 +22°C° 0.5 mm 6 mps 737 mmHg 77%
    20:00 +20°C° 0.5 mm 5 mps 738 mmHg 82%
    21:00 +19°C° 0.5 mm 4 mps 738 mmHg 86%
    22:00 +18°C° 0 mm 4 mps 738 mmHg 87%
    23:00 +17°C° 0 mm 4 mps 738 mmHg 87%

    Day after tomorrow, 22 August, Wednesday

    Time Temperature Precipitation Wind Pressure Humidity
    00:00 +16°C° 0 mm 3 mps 739 mmHg 87%
    01:00 +14°C° 0 mm 3 mps 739 mmHg 87%
    02:00 +14°C° 0 mm 3 mps 740 mmHg 88%
    03:00 +13°C° 0 mm 3 mps 740 mmHg 88%
    04:00 +12°C° 0 mm 3 mps 740 mmHg 88%
    05:00 +12°C° 0 mm 3 mps 741 mmHg 88%
    06:00 +11°C° 0 mm 4 mps 741 mmHg 88%
    07:00 +12°C° 0 mm 4 mps 742 mmHg 84%
    08:00 +13°C° 0 mm 5 mps 742 mmHg 79%
    09:00 +14°C° 0 mm 5 mps 742 mmHg 75%
    10:00 +15°C° 0 mm 5 mps 743 mmHg 68%
    11:00 +17°C° 0 mm 6 mps 743 mmHg 61%
    12:00 +19°C° 0 mm 6 mps 743 mmHg 54%
    13:00 +19°C° 0 mm 6 mps 743 mmHg 52%
    14:00 +19°C° 0 mm 6 mps 743 mmHg 50%
    15:00 +20°C° 0 mm 6 mps 744 mmHg 49%
    16:00 +19°C° 0 mm 5 mps 744 mmHg 52%
    17:00 +19°C° 0 mm 5 mps 744 mmHg 55%
    18:00 +18°C° 0 mm 4 mps 744 mmHg 59%
    19:00 +15°C° 0 mm 4 mps 745 mmHg 62%
    20:00 +14°C° 0 mm 3 mps 745 mmHg 66%
    21:00 +12°C° 0 mm 3 mps 746 mmHg 70%
    22:00 +12°C° 0 mm 3 mps 746 mmHg 70%
    23:00 +12°C° 0 mm 2 mps 747 mmHg 71%

    23 August, Thursday

    Time Temperature Precipitation Wind Pressure Humidity
    00:00 +12°C° 0 mm 2 mps 747 mmHg 71%
    01:00 +10°C° 0 mm 2 mps 747 mmHg 72%
    02:00 +10°C° 0 mm 2 mps 747 mmHg 72%
    03:00 +9°C° 0 mm 2 mps 748 mmHg 72%
    04:00 +9°C° 0 mm 2 mps 748 mmHg 73%
    05:00 +9°C° 0 mm 2 mps 748 mmHg 74%
    06:00 +10°C° 0 mm 1 mps 748 mmHg 75%
    07:00 +12°C° 0 mm 1 mps 749 mmHg 69%
    08:00 +13°C° 0 mm 1 mps 749 mmHg 64%
    09:00 +15°C° 0 mm 1 mps 749 mmHg 58%
    10:00 +16°C° 0 mm 1 mps 749 mmHg 54%
    11:00 +19°C° 0 mm 1 mps 749 mmHg 49%
    12:00 +20°C° 0 mm 1 mps 749 mmHg 44%
    13:00 +20°C° 0 mm 1 mps 749 mmHg 43%
    14:00 +21°C° 0 mm 1 mps 749 mmHg 42%
    15:00 +21°C° 0 mm 1 mps 748 mmHg 41%
    16:00 +21°C° 0 mm 1 mps 748 mmHg 43%
    17:00 +21°C° 0 mm 1 mps 748 mmHg 45%
    18:00 +19°C° 0 mm 0 mps 748 mmHg 47%
    19:00 +17°C° 0 mm 0 mps 748 mmHg 50%
    20:00 +15°C° 0 mm 0 mps 748 mmHg 53%
    21:00 +14°C° 0 mm 0 mps 748 mmHg 56%
    22:00 +14°C° 0 mm 1 mps 748 mmHg 57%
    23:00 +14°C° 0 mm 1 mps 748 mmHg 58%

    24 August, Friday

    Time Temperature Precipitation Wind Pressure Humidity
    00:00 +14°C° 0 mm 1 mps 749 mmHg 59%
    01:00 +13°C° 0 mm 1 mps 749 mmHg 60%
    02:00 +13°C° 0 mm 1 mps 749 mmHg 61%
    03:00 +12°C° 0 mm 1 mps 749 mmHg 62%
    04:00 +12°C° 0 mm 1 mps 749 mmHg 64%
    05:00 +12°C° 0 mm 1 mps 749 mmHg 65%
    06:00 +12°C° 0 mm 1 mps 749 mmHg 67%
    07:00 +14°C° 0 mm 1 mps 749 mmHg 63%
    08:00 +15°C° 0 mm 2 mps 749 mmHg 58%
    09:00 +17°C° 0 mm 2 mps 749 mmHg 54%
    10:00 +18°C° 0 mm 2 mps 749 mmHg 51%
    11:00 +20°C° 0 mm 2 mps 749 mmHg 47%
    12:00 +21°C° 0 mm 2 mps 748 mmHg 43%
    13:00 +21°C° 0 mm 2 mps 748 mmHg 42%
    14:00 +23°C° 0 mm 2 mps 748 mmHg 41%
    15:00 +23°C° 0 mm 2 mps 748 mmHg 40%
    16:00 +23°C° 0 mm 2 mps 747 mmHg 43%
    17:00 +23°C° 0 mm 2 mps 747 mmHg 47%
    18:00 +22°C° 0 mm 1 mps 747 mmHg 50%
    19:00 +21°C° 0 mm 1 mps 747 mmHg 52%
    20:00 +18°C° 0 mm 2 mps 747 mmHg 55%
    21:00 +16°C° 0 mm 2 mps 747 mmHg 57%
    22:00 +16°C° 0 mm 2 mps 747 mmHg 58%
    23:00 +15°C° 0 mm 2 mps 747 mmHg 59%

    25 August, Saturday

    Time Temperature Precipitation Wind Pressure Humidity
    00:00 +15°C° 0 mm 2 mps 747 mmHg 60%
    01:00 +14°C° 0 mm 2 mps 747 mmHg 61%
    02:00 +14°C° 0 mm 2 mps 747 mmHg 62%
    03:00 +14°C° 0 mm 2 mps 747 mmHg 63%
    04:00 +13°C° 0 mm 2 mps 747 mmHg 64%
    05:00 +13°C° 0 mm 2 mps 747 mmHg 66%
    06:00 +13°C° 0 mm 2 mps 747 mmHg 67%
    07:00 +15°C° 0 mm 2 mps 747 mmHg 64%
    08:00 +17°C° 0 mm 3 mps 747 mmHg 60%
    09:00 +18°C° 0 mm 3 mps 747 mmHg 57%
    10:00 +20°C° 0 mm 3 mps 747 mmHg 52%
    11:00 +21°C° 0 mm 4 mps 747 mmHg 48%
    12:00 +23°C° 0 mm 4 mps 746 mmHg 43%
    13:00 +23°C° 0 mm 4 mps 746 mmHg 43%
    14:00 +24°C° 0 mm 3 mps 746 mmHg 42%
    15:00 +25°C° 0 mm 3 mps 746 mmHg 41%
    16:00 +24°C° 0 mm 3 mps 745 mmHg 44%
    17:00 +24°C° 0 mm 2 mps 745 mmHg 48%
    18:00 +24°C° 0 mm 2 mps 745 mmHg 51%
    19:00 +21°C° 0 mm 2 mps 745 mmHg 53%
    20:00 +19°C° 0 mm 2 mps 745 mmHg 55%
    21:00 +18°C° 0 mm 2 mps 745 mmHg 57%
    22:00 +17°C° 0 mm 2 mps 745 mmHg 58%
    23:00 +16°C° 0 mm 2 mps 745 mmHg 58%
    Show more